Weather History for KBBB - March, 2013

Change the Weather History Date:

Thursday, March 28, 2013

  Actual Average Record
Temperature  
Mean Temperature 32 °F -  
Max Temperature 39 °F 45 °F 74 °F (1968)
Min Temperature 26 °F 27 °F -2 °F (1969)
Degree Days  
Heating Degree Days 32    
Moisture  
Dew Point 27 °F    
Average Humidity 77    
Maximum Humidity 87    
Minimum Humidity 69    
Precipitation  
Precipitation 0.00 in - - ()
Sea Level Pressure  
Sea Level Pressure 30.25 in    
Wind  
Wind Speed 10 mph (SSE)    
Max Wind Speed 17 mph    
Max Gust Speed 21 mph    
Visibility 10 miles    
Events      
Averages and records for this station are not official NWS values.
T = Trace of Precipitation, MM = Missing Value Source: NWS Daily Summary

Daily Weather History Graph

Daily Weather History Graph

Search for Another Location

Airport or City:

Trip Planner

Search our weather history database for the weather conditions in past years. The results will help you decide how hot, cold, wet, or windy it might be!

Date:

Astronomy

Mar. 28, 2013 Rise Set
Actual Time 7:10 AM CDT 7:45 PM CDT
Civil Twilight 6:40 AM CDT 8:15 PM CDT
Nautical Twilight 6:05 AM CDT 8:50 PM CDT
Astronomical Twilight 5:28 AM CDT 9:27 PM CDT
Moon 9:46 PM CDT (3/28) 7:33 AM CDT (3/28)
Length of Visible Light 13h 35m
Length of Day
12h 35m
Full, 98% of the Moon is Illuminated
Mar 28
Full
Apr 2
Last Quarter
Apr 10
New
Apr 18
First Quarter
Apr 25
Full

Hourly Weather History & Observations

Time (CDT) Temp. Windchill Dew Point Humidity Pressure Visibility Wind Dir Wind Speed Gust Speed Precip Events Conditions
12:12 AM 28.4 °F 19.7 °F 19.4 °F 69% 30.29 in 10.0 mi SE 9.2 mph - N/A   Clear
12:33 AM 28.4 °F 19.7 °F 21.2 °F 74% 30.29 in 10.0 mi SE 9.2 mph - N/A   Clear
12:53 AM 28.4 °F 20.4 °F 21.2 °F 74% 30.29 in 10.0 mi SSE 8.1 mph - N/A   Clear
1:12 AM 28.4 °F 20.4 °F 21.2 °F 74% 30.29 in 10.0 mi SE 8.1 mph - N/A   Clear
1:33 AM 28.4 °F 21.2 °F 21.2 °F 74% 30.29 in 10.0 mi SSE 6.9 mph - N/A   Clear
1:52 AM 28.4 °F 21.2 °F 21.2 °F 74% 30.29 in 10.0 mi SSE 6.9 mph - N/A   Clear
2:12 AM 28.4 °F 18.5 °F 23.0 °F 80% 30.28 in 10.0 mi South 11.5 mph - N/A   Clear
2:33 AM 28.4 °F 20.4 °F 21.2 °F 74% 30.29 in 10.0 mi South 8.1 mph - N/A   Clear
2:52 AM 26.6 °F 17.5 °F 23.0 °F 86% 30.28 in 10.0 mi South 9.2 mph - N/A   Clear
3:12 AM 28.4 °F 19.1 °F 24.8 °F 86% 30.28 in 10.0 mi South 10.4 mph - N/A   Mostly Cloudy
3:33 AM 28.4 °F 19.1 °F 24.8 °F 86% 30.28 in 10.0 mi South 10.4 mph - N/A   Overcast
3:52 AM 28.4 °F 19.7 °F 24.8 °F 86% 30.27 in 10.0 mi SSE 9.2 mph - N/A   Overcast
4:13 AM 28.4 °F 19.7 °F 24.8 °F 86% 30.27 in 10.0 mi South 9.2 mph - N/A   Overcast
4:33 AM 30.2 °F 21.3 °F 24.8 °F 80% 30.27 in 10.0 mi South 10.4 mph - N/A   Overcast
4:52 AM 30.2 °F 21.3 °F 24.8 °F 80% 30.27 in 10.0 mi South 10.4 mph - N/A   Overcast
5:13 AM 30.2 °F 21.9 °F 24.8 °F 80% 30.27 in 10.0 mi SSE 9.2 mph - N/A   Overcast
5:32 AM 30.2 °F 22.6 °F 24.8 °F 80% 30.27 in 10.0 mi SSE 8.1 mph - N/A   Overcast
5:52 AM 30.2 °F 23.4 °F 24.8 °F 80% 30.27 in 10.0 mi SE 6.9 mph - N/A   Overcast
6:13 AM 30.2 °F 22.6 °F 24.8 °F 80% 30.26 in 10.0 mi SE 8.1 mph - N/A   Overcast
6:32 AM 30.2 °F 21.9 °F 26.6 °F 86% 30.26 in 10.0 mi SSE 9.2 mph - N/A   Overcast
6:52 AM 30.2 °F 23.4 °F 24.8 °F 80% 30.26 in 10.0 mi SSE 6.9 mph - N/A   Overcast
7:13 AM 30.2 °F 21.3 °F 26.6 °F 86% 30.26 in 10.0 mi SSE 10.4 mph - N/A   Overcast
7:32 AM 30.2 °F 23.4 °F 26.6 °F 86% 30.26 in 10.0 mi SSE 6.9 mph - N/A   Overcast
7:53 AM 30.2 °F 21.9 °F 26.6 °F 86% 30.26 in 10.0 mi SSE 9.2 mph - N/A   Overcast
8:12 AM 30.2 °F 20.2 °F 24.8 °F 80% 30.26 in 10.0 mi SSE 12.7 mph - N/A   Scattered Clouds
8:32 AM 30.2 °F 20.2 °F 24.8 °F 80% 30.26 in 10.0 mi South 12.7 mph 16.1 mph N/A   Clear
8:53 AM 32.0 °F 22.1 °F 24.8 °F 75% 30.26 in 10.0 mi South 13.8 mph 19.6 mph N/A   Clear
9:12 AM 32.0 °F 21.6 °F 24.8 °F 75% 30.26 in 10.0 mi SSE 15.0 mph 18.4 mph N/A   Clear
9:33 AM 33.8 °F 25.8 °F 24.8 °F 70% 30.27 in 10.0 mi South 10.4 mph - N/A   Clear
9:52 AM 33.8 °F 24.3 °F 24.8 °F 70% 30.27 in 10.0 mi South 13.8 mph - N/A   Scattered Clouds
10:12 AM 33.8 °F 25.3 °F 26.6 °F 75% 30.27 in 10.0 mi South 11.5 mph 17.3 mph N/A   Mostly Cloudy
10:52 AM 35.6 °F 26.6 °F 26.6 °F 70% 30.27 in 10.0 mi South 13.8 mph 17.3 mph N/A   Mostly Cloudy
11:12 AM 35.6 °F 26.6 °F 26.6 °F 70% 30.27 in 10.0 mi South 13.8 mph - N/A   Scattered Clouds
11:33 AM 37.4 °F 29.8 °F 28.4 °F 70% 30.27 in 10.0 mi SSE 11.5 mph - N/A   Scattered Clouds
11:52 AM 37.4 °F 30.3 °F 28.4 °F 70% 30.27 in 10.0 mi SSE 10.4 mph - N/A   Clear
12:12 PM 37.4 °F 28.9 °F 28.4 °F 70% 30.26 in 10.0 mi SSE 13.8 mph 19.6 mph N/A   Clear
12:33 PM 37.4 °F 29.3 °F 28.4 °F 70% 30.26 in 10.0 mi South 12.7 mph 18.4 mph N/A   Clear
12:52 PM 37.4 °F 27.8 °F 28.4 °F 70% 30.25 in 10.0 mi South 17.3 mph 20.7 mph N/A   Clear
1:13 PM 37.4 °F 29.3 °F 30.2 °F 75% 30.25 in 10.0 mi South 12.7 mph - N/A   Clear
1:33 PM 37.4 °F 30.3 °F 30.2 °F 75% 30.25 in 10.0 mi SSE 10.4 mph - N/A   Clear
1:52 PM 39.2 °F 31.6 °F 30.2 °F 70% 30.25 in 10.0 mi SSE 12.7 mph 17.3 mph N/A   Clear
2:13 PM 37.4 °F 29.8 °F 30.2 °F 75% 30.25 in 10.0 mi South 11.5 mph - N/A   Clear
2:32 PM 37.4 °F 29.8 °F 30.2 °F 75% 30.25 in 10.0 mi South 11.5 mph - N/A   Clear
2:52 PM 37.4 °F 28.9 °F 30.2 °F 75% 30.24 in 10.0 mi South 13.8 mph - N/A   Clear
3:13 PM 39.2 °F 31.2 °F 30.2 °F 70% 30.24 in 10.0 mi South 13.8 mph - N/A   Clear
3:32 PM 39.2 °F 31.6 °F 30.2 °F 70% 30.23 in 10.0 mi SSE 12.7 mph - N/A   Clear
3:53 PM 39.2 °F 31.2 °F 30.2 °F 70% 30.23 in 10.0 mi SSE 13.8 mph - N/A   Clear
4:13 PM 39.2 °F 31.6 °F 30.2 °F 70% 30.22 in 10.0 mi SE 12.7 mph 17.3 mph N/A   Clear
4:32 PM 39.2 °F 31.6 °F 30.2 °F 70% 30.22 in 10.0 mi SE 12.7 mph - N/A   Clear
4:53 PM 39.2 °F 31.6 °F 30.2 °F 70% 30.22 in 10.0 mi SE 12.7 mph 18.4 mph N/A   Clear
5:13 PM 39.2 °F 31.6 °F 30.2 °F 70% 30.22 in 10.0 mi SE 12.7 mph - N/A   Scattered Clouds
5:32 PM 39.2 °F 33.0 °F 30.2 °F 70% 30.21 in 10.0 mi SE 9.2 mph 18.4 mph N/A   Clear
5:53 PM 39.2 °F 32.5 °F 30.2 °F 70% 30.21 in 10.0 mi SE 10.4 mph - N/A   Clear
6:13 PM 39.2 °F 32.5 °F 30.2 °F 70% 30.21 in 10.0 mi SE 10.4 mph - N/A   Clear
6:32 PM 37.4 °F 29.8 °F 30.2 °F 75% 30.21 in 10.0 mi SE 11.5 mph - N/A   Clear
6:53 PM 37.4 °F 30.8 °F 30.2 °F 75% 30.21 in 10.0 mi SE 9.2 mph - N/A   Clear
7:12 PM 37.4 °F 30.8 °F 30.2 °F 75% 30.21 in 10.0 mi SE 9.2 mph - N/A   Clear
7:32 PM 35.6 °F 28.6 °F 30.2 °F 81% 30.21 in 10.0 mi SE 9.2 mph - N/A   Clear
7:53 PM 35.6 °F 28.6 °F 30.2 °F 81% 30.21 in 10.0 mi SE 9.2 mph - N/A   Scattered Clouds
8:12 PM 35.6 °F 28.6 °F 28.4 °F 75% 30.21 in 10.0 mi SE 9.2 mph - N/A   Scattered Clouds
8:32 PM 35.6 °F 29.2 °F 28.4 °F 75% 30.21 in 10.0 mi ESE 8.1 mph - N/A   Scattered Clouds
8:53 PM 35.6 °F 28.6 °F 28.4 °F 75% 30.22 in 10.0 mi SE 9.2 mph - N/A   Scattered Clouds
9:12 PM 35.6 °F 29.2 °F 28.4 °F 75% 30.22 in 10.0 mi SE 8.1 mph - N/A   Mostly Cloudy
9:33 PM 33.8 °F 27.0 °F 28.4 °F 81% 30.22 in 10.0 mi SE 8.1 mph - N/A   Scattered Clouds
9:53 PM 33.8 °F 26.4 °F 28.4 °F 81% 30.23 in 10.0 mi SE 9.2 mph - N/A   Scattered Clouds
10:12 PM 33.8 °F 26.4 °F 28.4 °F 81% 30.22 in 10.0 mi SE 9.2 mph - N/A   Scattered Clouds
10:33 PM 33.8 °F 26.4 °F 28.4 °F 81% 30.22 in 10.0 mi SE 9.2 mph - N/A   Mostly Cloudy
10:52 PM 33.8 °F 25.8 °F 28.4 °F 81% 30.22 in 10.0 mi SE 10.4 mph - N/A   Overcast
11:12 PM 33.8 °F 26.4 °F 28.4 °F 81% 30.21 in 10.0 mi SE 9.2 mph - N/A   Mostly Cloudy
11:33 PM 33.8 °F 26.4 °F 30.2 °F 87% 30.21 in 10.0 mi SE 9.2 mph - N/A   Mostly Cloudy
11:52 PM 33.8 °F 25.8 °F 30.2 °F 87% 30.21 in 10.0 mi SE 10.4 mph - N/A   Mostly Cloudy